This is the latest recevied weather packets stored in our database for station/object WX4SGA. If no packets are shown the sender has not sent any weather packets the latest 10 day(s).
| Time | Temp. | Humidity | Pressure | Rain* | Wind** | Luminosity | Snow |
|---|---|---|---|---|---|---|---|
| 1788138222 | 76° F | 94% | 764.5 mmHg | 0 in | - | 0 W/m² | - |
| 1788137918 | 77° F | 93% | 764.3 mmHg | 0 in | - | 0 W/m² | - |
| 1788137613 | 77° F | 93% | 764.3 mmHg | 0 in | - | 0 W/m² | - |
| 1788137308 | 77° F | 92% | 764.3 mmHg | 0 in | - | 0 W/m² | - |
| 1788137004 | 77° F | 92% | 764.3 mmHg | 0 in | - | 0 W/m² | - |
| 1788136700 | 77° F | 91% | 764.3 mmHg | 0 in | - | 0 W/m² | - |
| 1788136396 | 78° F | 91% | 764.3 mmHg | 0 in | - | 0 W/m² | - |
| 1788136095 | 78° F | 90% | 764.3 mmHg | 0 in | - | 0 W/m² | - |
| 1788135794 | 78° F | 89% | 764.3 mmHg | 0 in | - | 0 W/m² | - |
| 1788135490 | 78° F | 89% | 764.3 mmHg | 0 in | - | 0 W/m² | - |
| 1788135185 | 79° F | 88% | 764 mmHg | 0 in | - | 0 W/m² | - |
| 1788134883 | 79° F | 87% | 764 mmHg | 0 in | - | 0 W/m² | - |
| 1788134582 | 79° F | 88% | 764 mmHg | 0 in | - | 1 W/m² | - |
| 1788134281 | 79° F | 89% | 763.8 mmHg | 0 in | - | 2 W/m² | - |
| 1788133976 | 79° F | 90% | 764 mmHg | 0 in | - | 3 W/m² | - |
| 1788133671 | 80° F | 87% | 763.8 mmHg | 0 in | - | 5 W/m² | - |
| 1788133367 | 81° F | 86% | 763.8 mmHg | 0 in | - | 10 W/m² | - |
| 1788133062 | 82° F | 85% | 763.8 mmHg | 0 in | - | 10 W/m² | - |
| 1788132758 | 81° F | 85% | 764 mmHg | 0 in | - | 5 W/m² | - |
| 1788132453 | 81° F | 91% | 763.8 mmHg | 0 in | - | 23 W/m² | - |
| 1788132149 | 81° F | 90% | 763.8 mmHg | 0 in | - | 25 W/m² | - |
| 1788131845 | 82° F | 83% | 763.8 mmHg | 0 in | - | 28 W/m² | - |
| 1788131545 | 82° F | 84% | 763.8 mmHg | 0 in | - | 27 W/m² | - |
| 1788131240 | 82° F | 82% | 763.8 mmHg | 0 in | - | 31 W/m² | - |
| 1788130935 | 82° F | 82% | 763.8 mmHg | 0 in | - | 36 W/m² | - |
* Rain latest hour (hover to see other rain measurements)
** Current wind speed in m/s (hover to see current wind gust speed)